Weather History for Lexington, NE

Change the Weather History Date:

Wednesday, October 24, 2012

  Actual Average Record
Temperature  
Mean Temperature 48 °F -  
Max Temperature 56 °F 58 °F 85 °F (2014)
Min Temperature 39 °F 34 °F 19 °F (2005)
Degree Days  
Heating Degree Days 17    
Moisture  
Dew Point 42 °F    
Average Humidity 78    
Maximum Humidity 96    
Minimum Humidity 55    
Precipitation  
Precipitation 0.00 in - - ()
Sea Level Pressure  
Sea Level Pressure 29.82 in    
Wind  
Wind Speed 12 mph (NNE)    
Max Wind Speed 23 mph    
Max Gust Speed 31 mph    
Visibility 9 miles    
Events Rain    
Averages and records for this station are not official NWS values.
T = Trace of Precipitation, MM = Missing Value Source: NWS Daily Summary

Daily Weather History Graph

Daily Weather History Graph

Search for Another Location

Airport:

Trip Planner

Search our weather history database for the weather conditions in past years. The results will help you decide how hot, cold, wet, or windy it might be!

Date:

Astronomy

Oct. 24, 2012 Rise Set
Actual Time 8:00 AM CDT 6:44 PM CDT
Civil Twilight 7:32 AM CDT 7:12 PM CDT
Nautical Twilight 7:00 AM CDT 7:44 PM CDT
Astronomical Twilight 6:29 AM CDT 8:16 PM CDT
Moon 4:03 PM CDT (10/24) 2:56 AM CDT (10/24)
Length of Visible Light 11h 40m
Length of Day
10h 43m
Waxing Gibbous, 76% of the Moon is Illuminated
Oct 24
Waxing Gibbous
Oct 29
Full
Nov 6
Last Quarter
Nov 13
New
Nov 20
First Quarter

Hourly Weather History & Observations

Time (CDT) Temp. Windchill Dew Point Humidity Pressure Visibility Wind Dir Wind Speed Gust Speed Precip Events Conditions
12:15 AM 43.2 °F 36.6 °F 42.1 °F 96% 29.77 in 3.0 mi North 12.7 mph - N/A   Clear
12:35 AM 47.5 °F - 46.4 °F 96% 29.77 in 5.0 mi North 9.2 mph - N/A   Clear
1:15 AM 48.0 °F - 46.0 °F 93% 29.76 in 5.0 mi North 8.1 mph - N/A   Clear
1:35 AM 48.6 °F - 46.6 °F 93% 29.78 in 7.0 mi North 6.9 mph - N/A   Clear
1:55 AM 48.6 °F - 45.7 °F 90% 29.78 in 10.0 mi North 8.1 mph - N/A   Clear
2:15 AM 50.0 °F - 47.3 °F 90% 29.78 in 7.0 mi NNE 12.7 mph - N/A   Mostly Cloudy
2:35 AM 49.6 °F - 46.6 °F 89% 29.78 in 7.0 mi NNE 10.4 mph 16.1 mph N/A   Mostly Cloudy
2:55 AM 48.4 °F - 45.0 °F 88% 29.79 in 10.0 mi North 10.4 mph 18.4 mph N/A   Clear
3:15 AM 47.8 °F - 44.4 °F 88% 29.80 in 10.0 mi NNE 6.9 mph - N/A   Scattered Clouds
3:35 AM 47.3 °F - 43.7 °F 87% 29.81 in 10.0 mi NNE 9.2 mph - N/A   Scattered Clouds
3:55 AM 47.3 °F - 43.9 °F 88% 29.80 in 10.0 mi NNE 9.2 mph - N/A   Mostly Cloudy
4:15 AM 47.3 °F - 44.1 °F 88% 29.80 in 10.0 mi NE 6.9 mph - N/A   Overcast
4:35 AM 47.3 °F - 44.1 °F 88% 29.79 in 10.0 mi NE 13.8 mph - N/A   Overcast
4:55 AM 47.3 °F - 44.1 °F 88% 29.79 in 10.0 mi NNE 13.8 mph 17.3 mph N/A   Overcast
5:15 AM 46.9 °F - 43.9 °F 89% 29.79 in 10.0 mi NNE 13.8 mph - N/A   Overcast
5:35 AM 46.8 °F - 43.9 °F 90% 29.83 in 10.0 mi North 10.4 mph - N/A   Overcast
5:55 AM 46.8 °F - 43.9 °F 90% 29.82 in 10.0 mi North 12.7 mph 17.3 mph N/A   Overcast
6:15 AM 46.8 °F - 43.9 °F 90% 29.83 in 10.0 mi North 13.8 mph 21.9 mph N/A   Overcast
6:35 AM 46.9 °F - 43.9 °F 89% 29.82 in 10.0 mi North 16.1 mph 20.7 mph N/A   Overcast
6:55 AM 47.3 °F - 43.9 °F 88% 29.84 in 10.0 mi North 12.7 mph 18.4 mph N/A   Overcast
7:15 AM 47.3 °F - 44.4 °F 90% 29.82 in 7.0 mi NNE 13.8 mph 21.9 mph N/A   Overcast
7:35 AM 47.3 °F - 44.8 °F 91% 29.83 in 10.0 mi NNE 15.0 mph - N/A   Overcast
7:55 AM 47.7 °F - 45.0 °F 90% 29.82 in 10.0 mi NNE 15.0 mph 18.4 mph N/A   Overcast
8:15 AM 48.2 °F - 45.5 °F 90% 29.83 in 10.0 mi NNE 15.0 mph 20.7 mph N/A   Overcast
8:35 AM 48.6 °F - 45.5 °F 89% 29.84 in 10.0 mi NNE 15.0 mph 18.4 mph N/A   Overcast
8:55 AM 48.4 °F - 45.0 °F 88% 29.84 in 10.0 mi NNE 13.8 mph - N/A   Overcast
9:15 AM 48.2 °F - 44.6 °F 87% 29.85 in 10.0 mi NNE 12.7 mph 20.7 mph N/A   Overcast
9:35 AM 47.5 °F - 43.9 °F 87% 29.86 in 10.0 mi North 12.7 mph - N/A   Overcast
9:55 AM 46.9 °F - 43.7 °F 88% 29.86 in 10.0 mi North 13.8 mph - N/A   Overcast
10:15 AM 46.6 °F - 43.7 °F 90% 29.86 in 7.0 mi North 11.5 mph 17.3 mph N/A   Overcast
10:35 AM 46.4 °F 40.4 °F 43.9 °F 91% 29.86 in 4.0 mi NNE 13.8 mph - N/A   Overcast
10:55 AM 46.6 °F - 44.2 °F 92% 29.86 in 4.0 mi NNE 5.8 mph - N/A   Overcast
11:15 AM 46.9 °F - 44.6 °F 92% 29.87 in 4.0 mi NNE 6.9 mph - N/A   Overcast
11:35 AM 47.5 °F - 45.0 °F 91% 29.86 in 5.0 mi NNE 12.7 mph 18.4 mph N/A   Overcast
11:55 AM 47.8 °F - 45.0 °F 90% 29.86 in 5.0 mi NNE 13.8 mph - N/A   Overcast
12:15 PM 49.3 °F - 45.3 °F 86% 29.85 in 7.0 mi NNE 10.4 mph 17.3 mph N/A   Overcast
12:35 PM 50.5 °F - 45.1 °F 82% 29.85 in 10.0 mi North 10.4 mph - N/A   Overcast
12:55 PM 51.1 °F - 44.6 °F 78% 29.84 in 10.0 mi North 12.7 mph - N/A   Overcast
1:15 PM 51.8 °F - 44.2 °F 75% 29.83 in 10.0 mi North 10.4 mph - N/A   Overcast
1:35 PM 52.7 °F - 44.4 °F 73% 29.82 in 10.0 mi NNE 8.1 mph - N/A   Overcast
2:15 PM 55.0 °F - 43.7 °F 66% 29.81 in 10.0 mi NNE 11.5 mph 18.4 mph N/A   Overcast
2:35 PM 55.8 °F - 43.5 °F 63% 29.80 in 10.0 mi NE 11.5 mph 16.1 mph N/A   Overcast
2:55 PM 56.3 °F - 43.2 °F 61% 29.79 in 10.0 mi NE 11.5 mph - N/A   Overcast
3:15 PM 56.3 °F - 43.2 °F 61% 29.78 in 10.0 mi NE 11.5 mph - N/A   Overcast
3:35 PM 56.3 °F - 43.0 °F 61% 29.78 in 10.0 mi NE 11.5 mph - N/A   Overcast
4:15 PM 55.9 °F - 42.8 °F 61% 29.78 in 10.0 mi NE 9.2 mph - N/A   Overcast
4:35 PM 55.4 °F - 42.6 °F 62% 29.78 in 10.0 mi ENE 11.5 mph - N/A   Overcast
4:55 PM 54.9 °F - 42.6 °F 63% 29.79 in 10.0 mi ENE 11.5 mph - N/A   Overcast
5:15 PM 54.5 °F - 42.6 °F 64% 29.78 in 10.0 mi NE 9.2 mph - N/A   Overcast
5:35 PM 54.5 °F - 42.1 °F 63% 29.79 in 10.0 mi NE 12.7 mph - N/A   Overcast
5:55 PM 54.0 °F - 41.9 °F 64% 29.78 in 10.0 mi NE 12.7 mph 18.4 mph N/A   Overcast
6:15 PM 53.2 °F - 41.7 °F 65% 29.78 in 10.0 mi NE 16.1 mph - N/A   Overcast
6:35 PM 52.2 °F - 41.4 °F 67% 29.78 in 10.0 mi NE 15.0 mph 20.7 mph N/A   Overcast
6:55 PM 51.4 °F - 40.6 °F 67% 29.78 in 10.0 mi NE 13.8 mph - N/A   Overcast
7:15 PM 51.1 °F - 39.7 °F 65% 29.80 in 10.0 mi NE 15.0 mph 20.7 mph N/A   Overcast
7:55 PM 50.2 °F - 38.3 °F 64% 29.83 in 10.0 mi NE 15.0 mph 20.7 mph N/A   Overcast
8:15 PM 50.0 °F - 37.6 °F 62% 29.83 in 10.0 mi NNE 13.8 mph 23.0 mph N/A   Overcast
8:35 PM 49.3 °F - 37.8 °F 65% 29.83 in 10.0 mi NNE 15.0 mph 23.0 mph N/A   Overcast
8:55 PM 48.7 °F - 35.8 °F 61% 29.82 in 10.0 mi NNE 13.8 mph 25.3 mph N/A   Overcast
9:15 PM 48.4 °F - 33.4 °F 56% 29.82 in 10.0 mi NNE 18.4 mph 28.8 mph N/A   Overcast
9:35 PM 48.2 °F - 32.9 °F 55% 29.83 in 10.0 mi NE 16.1 mph 26.5 mph N/A   Overcast
9:55 PM 47.3 °F - 32.9 °F 57% 29.84 in 10.0 mi NNE 19.6 mph 26.5 mph N/A   Overcast
10:15 PM 46.8 °F - 34.0 °F 61% 29.84 in 10.0 mi North 17.3 mph 25.3 mph N/A   Overcast
10:35 PM 45.5 °F 37.3 °F 33.3 °F 62% 29.85 in 10.0 mi North 21.9 mph 31.1 mph N/A   Overcast
10:55 PM 44.8 °F 36.4 °F 32.9 °F 63% 29.85 in 10.0 mi North 21.9 mph 27.6 mph N/A   Overcast
11:15 PM 43.7 °F 34.7 °F 32.2 °F 64% 29.86 in 10.0 mi North 23.0 mph 28.8 mph N/A   Overcast
11:35 PM 40.3 °F 31.0 °F 35.1 °F 82% 29.87 in 10.0 mi North 19.6 mph 26.5 mph N/A Rain Light Rain
11:55 PM 39.2 °F 30.2 °F 35.2 °F 86% 29.85 in 10.0 mi North 17.3 mph 21.9 mph N/A Rain Light Rain